GFSGL_700_rhum_000.txt.gz
RH
97 97 96 96 95 94 96 93 78 70 52 38 26 18 14 16 20 23 23 23 24 24 26 29 31 31 63 88 30 38 36 22 22 16 17 13 13 55 95 98 98 98 98
97 96 96 95 94 95 92 85 63 52 38 28 20 18 24 23 23 25 24 23 24 25 25 28 29 28 46 50 42 24 39 25 14 10 20 18 13 10 16 93 98 95 98
96 95 95 95 95 97 88 67 60 43 34 24 19 25 24 24 28 27 23 22 21 19 21 26 27 32 34 33 42 33 25 28 30 8 16 23 18 12 8 12 80 98 99
95 96 95 95 97 81 74 73 51 37 25 18 21 24 24 26 26 25 26 26 31 38 45 49 48 46 36 33 71 55 35 37 65 43 10 15 24 18 9 7 9 92 99
96 96 96 94 82 80 82 64 36 30 17 17 22 24 25 28 28 30 37 48 53 59 64 65 61 59 56 51 50 52 47 45 63 98 85 13 11 22 14 7 8 10 84
99 96 94 90 89 90 78 39 30 17 14 17 21 26 26 28 34 50 60 63 69 75 77 83 85 87 86 79 68 63 61 39 38 61 89 74 28 10 20 14 8 7 9
95 92 100 97 93 89 66 29 19 12 15 19 28 28 29 40 61 75 77 81 89 92 88 85 84 84 86 86 95 94 81 67 37 31 52 97 62 82 19 19 13 8 6
93 98 96 96 88 88 36 23 13 14 25 32 28 33 50 65 81 83 90 99 99 95 92 93 92 88 88 93 91 88 99 97 65 34 32 39 90 97 99 33 19 15 7
97 96 99 97 92 34 26 14 14 31 34 31 37 56 70 77 86 88 94 95 94 92 96 96 96 96 97 97 97 97 97 100 91 43 30 38 41 79 78 63 23 16 12
98 92 95 75 30 28 16 14 37 38 34 42 58 75 83 92 91 95 96 99 94 91 93 95 96 96 97 98 97 100 100 99 94 57 64 38 38 32 22 26 50 26 11
92 93 55 30 31 18 18 37 43 37 45 59 71 78 96 99 97 100 100 97 95 92 92 95 96 97 98 97 98 98 95 94 90 56 50 40 38 39 37 20 44 28 8
99 50 31 30 22 24 42 45 41 47 57 71 74 83 94 97 99 96 96 98 98 98 97 96 96 97 98 96 97 98 96 99 96 74 60 48 46 36 21 46 30 16 8
38 34 30 24 28 48 47 42 45 55 75 77 84 85 90 93 96 97 100 96 94 96 97 96 97 95 96 96 97 96 97 98 94 74 99 61 42 38 22 32 19 30 70
37 33 28 33 48 50 45 42 44 75 82 84 85 84 89 95 99 100 99 98 96 95 97 98 96 97 96 96 95 96 96 98 100 77 60 100 95 39 24 15 16 31 99
31 28 37 49 49 46 41 35 59 86 90 91 89 89 89 90 99 99 96 96 96 97 99 97 98 97 97 100 99 98 98 94 94 97 96 59 49 35 26 18 19 22 29
28 38 48 50 49 43 38 31 76 96 92 92 96 97 97 98 98 97 96 96 96 97 99 97 97 97 96 98 97 97 98 98 100 100 88 59 47 40 25 22 37 28 21
39 46 51 50 47 37 32 29 71 86 98 94 96 99 98 97 97 96 94 84 82 88 93 96 97 97 98 97 97 100 100 98 97 98 100 100 89 57 45 29 22 24 19
45 55 50 50 38 36 25 33 83 86 87 98 98 97 97 97 96 91 92 97 93 94 98 99 98 95 94 97 97 96 96 97 99 100 99 97 97 100 100 65 41 35 39
59 56 53 45 40 38 21 40 91 91 94 98 96 95 97 97 94 86 96 98 96 96 94 94 95 94 95 96 96 96 96 96 97 96 99 99 90 93 89 98 94 98 99
66 59 58 51 40 35 19 32 90 93 96 98 97 97 96 95 97 94 99 98 96 96 97 98 97 97 97 96 88 89 96 96 96 96 96 97 95 92 94 96 98 98 97
75 68 67 64 57 34 21 21 72 94 94 98 97 97 96 96 96 97 97 97 96 96 96 97 97 97 98 99 98 97 96 90 87 90 92 95 97 99 97 96 97 98 98
82 79 74 69 66 33 23 22 43 95 95 96 97 97 96 97 97 97 97 97 97 97 97 97 98 98 98 96 97 98 98 97 97 96 96 96 95 95 95 95 95 95 95
88 86 78 74 73 40 23 16 35 89 97 96 98 97 97 96 97 97 97 97 97 97 99 100 100 98 97 97 96 96 96 96 97 97 97 97 96 97 97 98 98 98 98
92 89 81 76 79 55 28 18 29 51 98 99 97 98 98 97 97 97 97 97 97 97 97 97 97 97 96 95 96 97 98 98 98 97 96 97 97 97 97 97 97 97 97
95 91 83 78 80 68 45 30 30 40 64 99 99 97 98 98 98 97 97 97 97 97 97 97 97 96 95 95 95 96 96 96 96 96 96 96 97 98 98 98 98 98 97
96 96 82 78 75 73 65 52 42 32 32 55 99 99 98 97 97 97 97 96 96 96 96 95 94 90 88 86 85 83 75 67 62 58 56 56 57 56 56 54 52 49 47

GFSGL_700_rhum_003.txt.gz
RH
91 89 98 97 97 97 96 95 95 95 95 92 83 67 51 36 25 18 18 21 23 25 26 26 24 26 35 46 60 71 95 96 88 50 66 38 64 72 26 22 33 98 98
84 93 97 96 96 95 96 96 96 96 93 81 76 59 39 28 19 20 24 23 25 26 25 25 25 28 32 29 38 55 71 91 94 78 78 76 100 90 64 22 19 50 74
92 97 97 96 95 96 96 96 96 91 88 88 62 34 31 19 17 22 25 25 27 30 29 30 33 38 40 47 51 54 67 74 76 84 68 58 86 99 100 53 20 21 53
97 98 97 97 96 97 97 95 95 95 92 79 42 25 15 15 16 21 26 27 29 32 42 50 51 56 60 66 70 57 60 80 86 87 74 62 59 63 87 75 28 21 18
98 96 97 96 95 97 94 95 98 92 85 70 22 12 14 16 23 30 29 30 41 45 55 62 63 66 72 79 82 74 72 69 66 83 77 69 64 66 82 60 77 30 20
99 96 96 97 97 94 95 97 97 90 75 22 14 14 20 33 33 32 37 52 59 68 74 79 82 82 85 88 90 90 85 77 68 70 70 77 71 66 82 82 92 68 25
96 97 96 96 94 97 100 100 100 64 21 14 13 28 34 34 38 48 65 72 77 80 84 89 91 92 92 90 89 89 94 98 91 84 77 63 79 75 82 87 84 79 36
96 96 95 94 97 98 89 77 30 21 13 12 32 37 40 47 58 71 76 85 92 94 94 93 92 90 93 96 96 95 95 94 93 98 91 75 68 67 99 99 99 99 79
95 94 95 99 93 85 37 24 23 14 17 33 38 44 54 66 74 82 94 96 93 92 92 94 96 95 95 97 96 97 100 98 96 93 93 93 85 78 68 86 84 98 87
94 96 100 97 99 47 26 22 17 29 37 37 44 60 75 77 88 100 100 100 100 96 93 91 93 96 97 97 97 98 96 97 97 96 89 94 92 81 94 74 83 98 74
97 95 98 83 34 28 23 20 34 40 36 42 56 73 80 90 94 95 98 98 97 96 99 100 96 96 95 95 97 96 95 99 98 98 97 99 96 96 80 75 74 98 70
84 71 42 35 28 24 26 38 40 37 40 52 72 75 82 91 98 100 98 98 97 96 96 97 96 97 97 97 96 97 98 98 98 98 98 100 99 93 58 46 48 62 41
46 40 32 26 24 30 43 41 37 36 42 68 76 77 78 87 95 97 97 98 98 96 96 97 99 97 98 99 100 98 98 98 97 98 100 100 100 90 70 64 63 49 34
37 25 23 22 30 42 43 42 35 33 56 76 77 76 81 90 93 95 96 97 98 98 99 98 100 100 97 98 97 98 97 100 98 97 98 98 100 100 49 51 37 38 36
20 22 21 26 39 41 42 35 32 36 80 79 80 82 87 86 91 96 97 97 100 100 99 98 98 97 96 98 94 96 96 99 97 97 98 100 100 100 94 45 42 45 49
23 21 26 35 41 41 36 34 27 45 87 84 85 91 96 96 96 97 97 97 98 98 97 97 98 98 97 96 97 96 98 100 99 98 98 100 100 100 95 57 51 42 39
22 21 29 48 45 41 34 33 23 56 95 93 88 97 99 96 96 98 97 99 100 98 98 98 97 98 100 99 98 100 100 100 100 97 100 100 90 92 89 68 61 36 36
23 27 40 54 52 50 40 30 16 66 84 94 98 99 97 96 97 94 93 99 100 99 100 100 100 100 100 100 100 98 96 97 97 97 98 98 100 100 79 67 59 70 59
30 42 59 66 63 60 44 25 14 67 90 95 98 97 97 96 96 95 96 95 90 88 92 97 100 100 100 98 98 99 98 96 97 97 98 98 99 100 96 72 63 62 59
47 49 68 77 69 64 44 24 16 60 93 96 97 97 97 96 97 97 97 96 96 94 95 97 97 97 97 98 98 98 98 98 99 97 96 97 91 93 95 99 100 96 73
60 66 84 85 73 68 50 22 16 51 96 97 98 97 97 96 96 97 96 97 97 97 96 96 97 97 95 96 97 97 97 97 97 98 100 100 100 99 100 98 98 97 100
70 76 92 86 75 71 58 22 13 40 99 98 98 98 97 97 97 97 96 96 96 96 96 96 96 96 96 97 96 98 98 97 95 91 95 96 96 96 96 97 97 100 98
83 89 96 86 76 73 62 29 18 35 97 100 98 98 98 97 97 97 97 97 96 96 96 97 97 97 96 95 96 96 96 96 96 97 97 95 95 96 97 98 98 97 96
98 97 97 87 75 74 66 45 28 36 82 100 99 98 98 98 97 97 97 97 97 96 97 98 99 98 97 98 97 96 96 96 97 96 96 96 96 96 96 97 97 97 97
100 98 98 83 77 69 68 57 43 28 43 96 100 99 98 98 98 97 97 97 97 97 98 98 98 93 89 90 94 96 97 98 98 97 96 97 97 97 96 96 96 96 95
98 99 95 83 78 68 67 62 54 40 28 33 92 100 99 98 98 98 98 97 97 97 96 94 82 71 65 61 53 37 26 20 19 22 25 31 36 42 48 53 58 62 65

GFSGL_700_rhum_006.txt.gz
RH
51 68 66 75 88 97 98 96 96 96 96 96 96 96 96 92 75 58 31 23 20 14 12 13 13 14 14 14 15 18 40 45 62 17 46 56 50 45 42 47 65 57 26
58 60 67 83 94 97 96 96 95 95 96 96 95 94 88 71 66 40 14 11 11 14 18 22 22 22 22 20 18 21 26 24 37 41 54 62 76 91 64 55 54 57 60
63 74 85 93 98 98 97 98 97 96 95 95 94 91 76 69 44 11 10 14 16 18 23 28 26 26 26 24 24 24 25 29 38 42 37 53 57 70 76 50 53 70 69
75 90 89 92 94 96 97 94 97 96 94 94 94 88 81 40 12 12 18 26 33 33 31 30 27 27 32 43 53 49 44 40 37 52 43 52 57 54 66 52 42 47 49
98 93 98 93 91 99 94 96 96 94 95 92 81 53 18 12 12 28 38 37 35 36 39 41 45 59 73 81 84 74 72 61 51 48 57 55 62 66 60 50 59 54 58
92 93 98 100 100 96 98 96 94 86 65 35 20 20 11 13 30 39 42 44 53 50 54 66 76 84 88 90 95 94 89 88 82 74 54 45 54 72 74 75 70 70 69
96 98 97 97 96 96 95 94 92 91 36 22 18 14 24 35 38 44 55 66 70 74 80 90 94 95 97 96 96 97 98 98 96 96 88 73 53 55 74 85 93 87 84
97 97 96 94 94 95 98 99 92 34 23 18 19 36 37 37 47 66 80 82 87 93 94 95 94 93 96 98 97 94 94 96 100 98 93 95 90 73 75 88 100 98 80
98 95 96 89 95 99 97 57 29 24 20 29 37 37 39 49 76 80 88 96 96 96 97 97 96 94 96 98 97 97 97 97 100 94 95 97 94 97 91 95 90 100 88
94 86 81 92 96 66 35 26 22 22 36 37 36 38 49 79 81 88 99 100 98 96 96 96 97 100 97 98 98 99 100 98 97 98 96 92 91 94 93 96 92 92 100
85 96 91 64 42 29 22 21 26 37 39 35 36 42 74 82 87 96 98 97 97 95 90 91 97 99 97 98 98 100 96 100 99 97 95 92 93 97 94 95 97 84 100
100 87 54 35 20 20 21 27 37 40 37 35 38 55 77 87 98 97 97 97 98 97 94 96 97 97 97 96 94 94 96 99 99 98 96 94 91 96 96 95 95 91 80
62 37 25 16 20 21 28 36 38 38 35 34 39 72 79 98 98 97 97 98 98 96 97 97 96 96 96 96 97 97 98 96 96 97 98 93 94 97 99 97 99 97 94
32 18 16 18 19 23 35 41 38 36 33 29 61 76 92 97 96 98 94 95 98 98 97 98 97 97 98 98 96 97 98 98 98 98 98 98 97 97 97 99 98 100 98
18 17 18 20 24 29 44 46 42 33 26 34 77 88 93 96 98 99 97 93 95 96 98 98 98 98 98 100 100 99 95 86 92 96 95 98 97 97 98 100 94 95 82
19 18 21 25 29 39 54 52 52 31 20 66 84 97 97 97 99 98 97 97 97 99 98 98 98 97 97 98 100 96 89 85 91 93 93 95 98 99 95 99 100 98 83
22 29 32 36 42 56 66 60 53 22 19 82 91 97 97 99 97 97 97 97 97 98 97 98 98 98 99 98 96 98 100 99 98 96 94 98 95 100 100 100 100 100 96
30 36 43 52 55 71 71 64 47 19 15 80 98 97 97 99 96 97 98 97 98 97 94 93 93 99 100 100 98 96 96 98 100 98 100 99 95 98 100 100 100 100 100
48 44 54 60 62 78 72 66 45 17 19 88 98 98 98 98 97 96 96 96 96 96 94 94 93 96 97 100 100 100 96 96 98 97 99 100 100 100 100 98 87 86 100
52 56 67 65 75 84 74 68 46 15 20 94 98 97 97 98 97 97 97 96 96 96 94 92 95 97 96 96 96 98 99 97 96 94 97 97 98 100 100 100 94 89 94
53 77 82 78 89 81 74 70 49 18 25 97 98 97 97 98 97 97 97 97 96 97 96 94 96 91 91 91 96 100 96 95 97 98 97 96 97 97 97 100 99 95 83
72 92 92 91 90 82 74 70 52 27 33 98 98 98 98 98 97 97 97 97 96 96 95 96 96 97 99 96 90 91 92 94 97 97 97 96 97 97 97 97 98 99 100
95 99 98 94 90 80 73 68 57 34 38 98 99 98 98 98 98 97 97 97 97 96 96 96 96 97 96 97 99 98 93 92 87 88 94 98 98 97 97 97 97 98 100
97 96 97 95 84 80 69 66 58 44 44 91 99 99 98 98 98 98 97 97 97 96 96 96 96 97 97 98 97 97 97 96 96 97 97 97 96 96 97 100 98 97 97
94 98 97 89 82 81 71 68 68 51 65 43 95 99 99 98 98 98 98 97 97 97 96 96 96 89 83 81 76 72 74 81 88 91 94 96 97 97 97 97 97 97 97
95 98 96 86 86 85 75 74 73 79 85 37 33 97 99 99 98 98 98 98 97 97 97 96 82 54 36 26 21 20 20 19 20 18 16 14 12 11 12 18 27 41 56

GFSGL_700_rhum_009.txt.gz
RH
59 53 53 42 53 77 93 97 97 99 98 96 95 95 95 95 94 94 92 67 49 19 6 5 6 7 8 12 15 16 18 19 14 10 10 12 15 17 26 31 18 20 20
51 50 39 46 66 84 97 99 97 96 94 95 96 97 94 93 92 90 72 50 13 9 9 12 13 13 14 15 18 19 20 22 21 12 15 11 12 19 22 26 36 20 37
49 40 42 58 83 87 93 94 95 88 88 100 95 90 84 69 49 28 16 13 11 12 17 23 24 25 24 23 22 21 22 22 19 15 13 13 16 20 22 27 52 62 46
46 47 64 78 89 89 84 85 87 92 97 89 85 64 37 17 16 16 12 13 17 24 28 32 33 33 32 31 30 28 29 34 33 26 16 15 16 20 31 30 33 50 57
78 100 95 94 91 88 89 93 99 95 95 94 75 57 19 17 15 20 27 32 35 37 39 44 48 54 62 69 70 61 69 70 70 63 38 32 22 16 28 47 43 50 56
100 99 98 96 98 100 98 96 95 95 94 79 40 19 16 19 31 38 39 37 40 46 52 64 74 76 76 81 86 92 92 88 84 81 61 51 43 38 34 40 65 68 48
100 98 97 98 98 97 94 87 91 84 52 20 17 18 24 34 36 37 39 48 63 73 75 78 80 86 91 92 92 95 98 100 98 90 77 73 70 60 57 41 49 94 61
99 97 98 98 92 82 81 80 60 30 19 18 20 28 34 35 35 40 63 78 76 80 84 86 86 86 88 94 98 96 96 95 99 96 85 81 86 91 85 75 57 53 46
87 85 82 80 81 78 70 44 22 18 20 22 28 35 36 35 39 64 78 79 82 85 88 93 96 93 91 93 97 97 90 88 88 90 93 93 90 88 90 88 78 74 46
86 95 100 92 99 72 35 17 19 20 22 30 36 37 35 36 61 79 85 91 94 96 90 90 91 94 96 96 93 94 92 88 88 89 91 91 92 93 97 92 87 81 80
96 97 98 100 61 26 17 20 21 21 32 37 36 35 32 57 78 89 97 99 100 91 94 92 95 98 98 97 98 96 92 92 94 89 88 90 90 90 88 93 91 86 88
96 86 74 39 18 17 19 19 22 30 39 38 32 30 35 78 96 98 99 99 99 97 95 93 97 98 97 96 95 97 99 99 96 95 97 97 96 96 96 94 94 92 94
74 46 27 17 18 19 19 21 26 45 46 43 28 24 61 94 100 98 98 98 98 96 97 97 95 95 96 96 97 96 97 97 97 99 99 98 98 98 97 94 94 95 97
37 22 20 19 20 23 26 34 48 57 54 42 20 26 78 97 96 97 96 90 93 96 97 97 96 94 95 96 96 97 96 97 98 99 99 99 98 98 98 97 99 98 99
22 24 24 27 32 33 42 44 65 66 58 32 17 56 87 91 97 96 94 94 97 97 96 98 96 96 100 99 98 98 99 90 80 92 97 100 98 97 98 99 97 99 96
28 30 31 39 40 49 46 50 75 68 52 21 24 85 94 96 97 97 97 96 96 96 97 96 98 97 100 100 96 96 88 76 64 64 75 88 95 96 98 96 96 99 96
27 33 47 52 53 55 50 68 70 66 44 17 41 97 97 97 96 97 97 92 95 97 98 96 95 98 98 92 92 94 86 80 78 76 77 86 95 97 98 95 96 100 95
26 30 42 52 64 64 67 80 72 65 45 15 68 96 96 97 96 98 96 96 98 97 98 98 92 94 93 94 96 93 93 91 91 84 88 89 96 96 95 99 100 96 99
25 28 39 60 73 77 86 83 72 69 40 18 86 100 98 97 97 97 96 97 97 96 98 99 96 93 89 94 94 96 100 100 99 99 97 92 85 86 92 95 97 98 88
27 39 54 83 90 92 90 80 70 68 36 25 94 97 98 98 98 98 97 96 98 96 98 100 98 96 97 90 90 93 93 95 97 99 98 98 98 99 96 88 88 79 80
46 69 91 97 96 93 88 74 69 65 37 40 98 97 98 98 98 98 97 97 97 96 95 96 98 96 95 96 98 91 91 93 96 96 98 98 98 97 96 96 98 88 93
72 89 94 94 92 94 81 72 68 60 38 63 99 98 98 98 98 98 97 97 97 96 96 93 98 97 91 91 93 98 96 93 93 95 96 97 99 99 96 94 93 100 97
90 92 94 92 94 86 82 71 68 62 43 92 99 99 99 99 98 98 98 97 97 96 96 94 92 98 99 96 93 92 94 94 96 96 97 96 96 96 98 99 96 99 100
96 94 93 93 87 90 83 74 73 70 79 75 80 99 99 99 99 98 99 98 98 97 97 96 95 93 92 92 88 87 92 92 95 99 100 100 99 97 96 97 97 98 98
90 92 92 93 93 96 88 80 77 87 98 82 40 98 99 99 99 98 98 98 98 98 98 98 94 76 49 28 19 15 13 14 13 13 16 30 61 88 94 96 97 98 97
91 94 94 95 98 100 97 86 83 95 100 92 48 58 100 99 98 98 98 98 98 98 98 95 64 35 33 35 37 36 34 33 33 33 33 33 33 31 25 20 19 30 55

GFSGL_700_rhum_015.txt.gz
RH
50 44 35 24 20 19 25 36 64 84 90 94 96 97 98 97 95 93 87 74 65 68 66 58 50 38 28 21 15 11 9 8 7 6 7 7 7 8 8 10 12 14 39
29 16 14 15 15 19 32 53 92 97 96 96 96 86 88 92 87 77 73 69 64 46 26 14 10 10 9 9 8 8 9 11 14 11 12 12 10 9 7 7 8 10 12
17 16 14 18 23 40 54 77 96 99 96 97 97 93 90 94 94 86 75 53 24 11 10 10 10 11 13 18 21 22 22 23 25 24 21 22 20 17 12 9 8 7 8
24 18 16 26 43 63 95 99 95 97 97 97 99 99 99 99 86 53 20 10 11 12 13 16 21 26 28 30 31 31 32 33 33 34 29 28 27 24 21 17 12 11 9
26 19 27 47 94 99 96 97 100 98 99 99 98 96 82 27 13 12 14 16 16 18 24 30 31 35 37 40 48 51 59 61 62 61 53 42 34 32 33 31 19 14 10
21 36 64 76 100 99 98 98 98 96 93 75 32 17 12 12 13 13 14 15 20 26 32 34 35 37 53 65 70 74 76 77 77 79 78 71 67 68 66 67 63 52 27
52 77 88 90 87 89 90 84 81 84 70 36 20 14 14 14 13 14 16 23 28 32 35 34 48 66 74 77 79 82 85 89 93 94 90 87 84 87 86 80 83 81 66
84 97 100 98 93 94 98 99 86 62 40 21 16 16 14 15 16 20 28 31 30 31 39 70 79 80 81 83 79 78 82 87 93 97 99 94 92 92 92 91 92 89 77
100 97 97 94 96 97 92 67 39 25 19 17 17 18 20 20 25 34 39 28 26 50 79 84 88 84 86 88 89 87 86 84 93 98 99 100 96 93 94 94 88 89 84
99 98 96 92 93 87 50 26 20 18 18 21 25 29 26 29 47 48 28 22 60 77 84 90 94 98 97 98 98 94 91 93 97 95 99 99 98 93 93 94 92 85 87
95 90 89 86 68 39 24 22 21 22 26 30 35 31 35 52 54 32 20 69 82 84 91 90 96 97 96 99 100 95 94 95 97 99 95 98 98 99 98 92 93 93 91
100 98 89 67 37 27 25 24 30 36 38 45 43 33 51 57 39 19 65 92 94 96 93 96 96 97 99 98 96 96 98 96 98 99 100 98 97 98 100 98 99 100 100
98 95 84 45 30 29 24 26 34 44 48 52 46 45 54 53 21 51 95 97 99 99 98 99 96 99 100 100 100 100 100 95 94 95 96 98 98 98 98 94 93 98 100
91 64 38 32 30 26 26 28 36 49 68 64 59 63 55 43 24 87 97 97 99 98 98 97 98 99 98 99 100 100 100 97 95 85 86 96 99 100 98 97 98 99 100
62 44 37 36 31 27 27 38 59 84 83 73 72 66 57 25 52 98 96 97 97 97 96 98 100 100 100 100 100 99 99 94 82 70 59 64 88 100 100 100 100 99 98
41 39 34 31 24 27 43 64 99 96 93 83 73 66 50 26 89 97 97 98 97 98 97 99 100 95 94 97 98 97 92 85 75 63 63 77 86 88 88 92 99 100 99
37 35 32 23 40 52 74 91 87 88 87 75 68 61 34 68 98 98 98 97 97 98 98 99 100 94 94 94 94 92 88 86 82 76 81 85 95 100 98 90 96 99 99
38 29 24 52 62 80 86 87 86 78 72 65 64 42 62 96 98 98 98 97 97 98 97 98 100 95 93 91 90 88 89 88 89 88 89 91 94 99 94 93 91 94 96
28 27 52 66 80 86 88 84 81 80 71 68 48 64 99 100 98 98 98 97 98 98 97 97 99 96 95 94 89 83 84 84 90 92 90 89 87 84 86 86 85 94 92
27 50 66 81 84 86 87 86 88 79 74 66 69 94 99 99 99 98 98 98 97 98 97 97 97 98 97 94 94 91 87 84 82 86 94 96 91 88 89 86 83 83 83
48 57 76 83 85 87 90 92 90 83 77 91 98 95 98 98 99 99 98 98 97 98 97 97 97 98 100 96 94 92 91 88 87 88 87 87 88 88 90 90 87 87 84
56 68 77 82 86 90 93 94 93 87 93 100 93 94 98 98 98 98 98 98 98 98 98 98 98 98 94 81 75 77 84 89 89 89 88 86 85 85 86 88 92 94 81
57 67 80 84 84 87 91 94 94 92 98 99 96 94 99 99 99 98 98 98 98 98 97 98 97 74 36 21 16 16 16 16 18 38 77 91 89 86 87 90 91 92 94
53 64 76 81 84 90 92 94 93 94 97 98 96 95 98 100 99 98 98 98 98 98 98 98 89 36 28 34 35 34 33 31 29 29 23 18 34 83 92 91 90 93 96
55 63 75 83 86 92 96 94 90 91 97 96 98 98 97 98 99 99 98 98 98 98 98 98 72 45 42 40 37 35 32 30 29 28 28 28 29 29 25 26 60 92 97
56 65 71 83 89 92 95 96 93 88 94 95 96 99 97 98 98 98 99 100 99 98 98 98 78 50 43 39 38 36 33 31 30 28 26 25 25 25 26 26 28 31 30

GFSGL_700_rhum_021.txt.gz
RH
86 81 73 55 40 34 29 23 17 17 30 57 89 98 95 93 97 96 98 96 96 96 95 95 96 95 83 61 39 19 12 10 10 9 8 8 8 8 9 10 13 18 23
75 51 36 31 28 21 14 13 23 50 75 95 94 99 98 97 96 98 95 96 96 96 96 96 80 44 21 13 11 10 10 11 16 14 8 8 7 6 6 6 4 4 4
33 24 20 15 12 13 24 43 64 81 99 98 98 97 96 94 95 96 96 90 84 62 37 20 14 12 11 10 10 10 11 13 19 23 18 20 20 18 16 16 14 11 11
18 12 9 8 14 38 64 70 73 80 90 94 97 99 99 98 95 80 55 35 18 15 14 14 14 13 12 11 11 13 17 23 29 32 30 28 29 27 26 24 22 22 17
10 8 8 16 49 71 75 85 91 91 92 91 91 87 67 36 27 23 19 17 18 20 21 20 18 18 20 26 29 28 30 32 33 34 37 40 47 55 56 56 53 53 44
7 10 24 62 82 100 98 95 97 97 94 90 75 42 27 25 24 23 24 26 28 26 18 15 16 23 34 29 26 32 48 67 74 80 80 76 75 79 78 75 74 71 64
16 31 65 68 76 88 92 89 81 76 63 40 30 28 28 28 30 31 32 36 36 27 18 24 36 34 23 38 68 81 86 90 93 93 86 80 80 82 81 76 76 77 76
36 61 90 92 88 88 90 89 89 77 46 32 31 33 31 31 37 43 45 46 40 30 34 42 29 26 74 91 90 89 90 87 88 93 92 88 90 94 94 90 86 85 82
59 80 90 92 98 100 100 92 71 41 32 32 29 26 25 26 32 43 51 47 39 41 45 31 44 88 98 99 98 90 85 89 95 92 90 92 95 96 97 99 94 97 92
67 96 97 99 100 94 67 38 33 33 30 28 26 25 32 41 60 66 62 55 51 49 41 35 96 98 98 100 98 94 92 94 93 91 90 97 100 100 97 98 98 98 98
68 89 93 81 55 41 34 33 31 29 26 23 27 43 58 76 84 78 72 63 57 47 26 84 97 97 98 99 99 96 94 96 100 100 100 99 99 98 96 97 98 97 99
75 74 55 38 33 32 33 32 25 20 28 41 51 70 82 84 80 69 64 61 46 30 82 97 97 97 99 100 96 93 97 97 99 100 97 96 94 96 98 99 97 96 98
78 53 32 32 34 35 31 20 26 43 50 69 72 71 70 70 66 62 55 42 56 99 98 98 98 98 98 97 92 95 91 94 98 97 85 72 62 63 83 100 100 98 97
58 32 32 34 32 27 21 36 49 65 72 68 70 72 69 65 58 47 56 92 100 100 99 98 98 97 94 97 97 94 90 95 96 85 73 64 59 54 60 89 100 100 97
35 32 28 27 24 22 40 53 72 78 74 77 81 75 68 58 61 90 98 96 98 98 98 98 98 97 98 97 99 94 94 97 99 92 81 73 69 63 62 73 87 96 99
32 26 21 21 21 40 48 68 82 83 88 89 84 77 74 78 87 99 100 99 99 98 98 98 97 97 100 100 98 90 96 95 96 95 89 83 80 73 69 77 83 86 90
21 18 17 22 38 52 62 62 65 82 93 87 85 89 95 88 93 100 100 99 99 98 98 98 97 98 99 100 89 86 86 93 98 97 94 98 96 86 86 84 88 88 90
16 14 27 36 52 58 60 66 72 79 79 82 90 93 91 89 95 99 100 100 98 98 98 98 98 98 98 98 98 94 92 94 95 98 98 96 98 98 94 95 91 90 94
15 26 35 46 47 53 63 71 75 83 82 83 87 95 93 95 96 97 98 99 99 98 98 98 98 98 98 97 96 95 95 96 94 91 90 90 93 94 96 90 90 90 90
24 29 38 42 48 57 64 71 77 83 82 83 86 90 93 98 100 100 100 99 98 98 98 98 98 98 98 97 82 58 69 88 96 96 86 82 85 87 88 86 86 79 84
30 33 37 44 50 60 68 73 77 83 83 82 87 91 93 95 97 98 99 99 99 98 99 98 97 97 96 63 23 19 18 18 24 68 95 87 85 84 84 85 86 89 84
33 36 38 48 56 61 70 75 81 86 86 82 87 92 95 96 97 98 99 98 99 98 98 98 98 96 61 32 36 36 35 34 33 28 24 60 90 91 90 88 89 89 88
33 39 42 49 55 68 70 76 84 89 90 84 84 92 96 97 94 98 100 99 99 99 98 98 98 83 52 42 40 37 36 34 33 30 30 30 27 35 69 92 94 94 96
33 39 40 42 48 66 76 78 84 91 92 91 84 90 95 99 96 98 100 99 99 100 99 99 99 90 62 45 40 37 34 32 30 28 27 26 26 26 27 28 28 39 74
32 33 35 40 47 60 81 87 89 92 94 95 89 91 93 98 98 96 97 99 100 100 100 100 99 94 65 47 43 40 38 36 34 33 32 29 25 23 21 19 19 20 25
31 31 32 34 38 53 78 94 96 94 95 96 96 95 97 98 99 100 100 99 100 100 100 100 99 97 76 56 51 51 51 50 49 47 44 41 38 35 32 30 28 25 22

GFSGL_700_rhum_024.txt.gz
RH
58 59 45 32 27 23 17 11 9 12 32 53 73 93 89 93 98 97 96 96 96 95 94 96 94 93 90 86 69 76 44 24 26 29 27 21 19 18 16 14 18 25 27
35 31 27 22 16 11 8 13 34 60 68 66 78 91 100 98 95 95 94 94 92 91 94 91 87 71 55 37 21 16 14 20 39 26 8 8 6 6 6 5 4 4 4
25 20 14 10 7 8 14 40 61 68 77 82 84 95 96 96 97 97 95 91 84 55 36 23 17 16 14 13 13 12 12 11 12 15 9 9 9 9 9 8 8 8 8
21 11 6 6 9 19 45 58 69 100 100 99 99 98 95 88 76 49 29 24 23 22 20 19 20 20 18 16 14 14 14 13 15 21 18 13 24 27 26 23 20 20 18
6 6 7 13 29 63 82 99 98 98 100 96 81 69 47 32 27 25 24 24 24 24 26 27 28 23 19 18 19 20 23 27 29 28 27 28 31 37 43 48 48 47 40
7 9 20 37 62 76 85 82 83 85 84 85 82 54 35 31 27 29 28 28 28 30 34 36 36 27 21 21 29 34 26 26 36 65 71 70 71 77 79 77 76 72 66
11 25 46 60 78 88 90 94 95 94 82 56 37 30 30 31 26 27 25 24 25 30 41 42 37 37 39 36 26 32 62 86 93 94 90 86 87 88 90 88 86 84 79
19 47 59 68 90 96 95 97 80 44 30 29 29 28 28 26 23 25 32 37 42 47 51 49 52 49 37 31 68 88 93 95 95 98 95 89 91 95 97 94 95 94 88
38 58 66 74 91 84 59 33 29 30 30 28 23 20 23 32 42 51 56 63 64 60 57 55 52 38 38 92 98 97 94 92 97 94 90 90 90 89 92 100 99 99 91
52 67 71 73 69 45 29 28 28 26 17 17 26 41 52 65 74 73 70 68 64 59 56 54 41 50 98 100 99 98 94 99 97 95 98 98 100 98 98 98 100 97 98
72 82 82 72 41 31 30 24 18 15 20 33 43 61 63 63 66 69 67 65 62 56 51 40 66 100 100 99 99 99 98 97 99 99 98 99 99 99 98 99 98 98 97
86 90 86 48 33 30 25 17 17 28 35 53 61 64 69 71 69 65 60 53 49 46 60 90 99 99 98 99 99 98 99 98 97 100 98 99 91 84 88 96 100 99 98
93 90 72 36 31 25 19 19 31 43 60 60 68 74 76 75 70 60 66 88 99 100 100 100 99 98 99 100 98 99 99 97 99 98 92 82 71 66 67 73 96 100 100
98 94 48 34 26 20 21 35 50 61 62 70 75 78 79 78 82 83 87 97 100 100 99 99 99 98 98 98 100 99 96 100 98 99 87 77 73 66 59 65 80 97 100
98 83 37 24 19 20 35 50 61 65 68 75 82 83 83 87 89 87 97 97 99 99 99 98 98 98 98 100 98 98 100 100 98 96 92 85 81 76 69 67 75 83 94
98 58 28 18 21 36 46 50 56 66 77 79 83 84 88 89 86 95 100 99 99 99 99 98 98 98 98 100 100 100 99 98 100 97 100 92 85 82 85 88 87 89 89
96 34 19 22 34 40 42 56 62 69 74 75 83 85 87 86 90 96 99 98 99 98 98 98 98 98 98 98 100 99 95 93 94 97 98 96 90 88 85 88 93 94 93
65 22 22 32 37 36 49 59 63 70 78 82 78 88 88 88 93 95 98 99 97 98 99 98 98 98 98 98 100 100 96 94 95 90 88 89 90 91 91 90 88 88 94
26 24 30 35 37 39 51 61 67 74 81 82 79 83 87 88 94 94 94 98 100 99 98 98 98 98 98 97 95 81 67 80 90 89 84 80 82 85 89 96 94 91 90
27 31 33 35 40 46 53 63 71 78 83 82 78 80 86 85 91 97 98 98 98 98 98 98 98 98 98 90 38 20 17 18 30 79 90 86 80 81 85 89 88 89 94
24 29 34 37 44 49 57 64 71 80 85 84 81 78 84 85 85 93 97 98 98 98 98 98 98 98 95 60 36 34 33 31 29 22 40 92 89 86 83 86 88 90 94
21 28 36 41 44 44 51 68 75 81 86 87 86 80 84 87 85 88 96 98 98 99 99 98 97 94 67 47 39 35 32 30 30 29 29 27 38 80 89 91 92 93 92
24 29 35 39 38 44 49 68 79 84 86 89 89 84 85 87 90 89 95 99 97 98 100 100 99 94 71 47 40 36 33 31 29 28 26 25 26 26 26 32 57 81 88
24 27 32 35 36 39 46 67 84 89 90 89 90 90 90 88 91 91 94 98 98 98 99 100 100 97 80 55 43 38 35 34 32 30 28 25 23 21 20 20 21 24 26
24 28 32 32 32 37 43 55 76 88 90 90 92 91 92 91 91 93 94 95 97 98 99 100 99 98 79 58 48 45 45 44 43 43 41 38 36 33 31 29 27 24 20
26 29 33 33 36 39 42 47 52 62 78 90 94 94 93 93 93 94 96 99 100 100 100 100 99 98 96 82 66 59 58 57 55 53 50 46 43 41 38 36 34 32 30

GFSGL_700_rhum_030.txt.gz
RH
80 72 58 50 40 21 12 12 11 9 10 14 29 51 74 94 97 99 93 90 96 88 83 95 100 100 95 98 90 76 86 98 95 90 76 75 92 96 97 97 94 93 91
74 58 50 31 15 19 18 15 9 9 10 33 70 81 92 98 100 100 87 99 91 100 91 87 48 44 36 37 35 27 32 41 46 33 63 70 52 57 81 94 95 94 91
66 60 36 19 26 30 22 14 10 13 26 60 93 92 98 91 80 76 75 73 47 44 41 32 31 31 32 33 33 31 34 37 46 37 25 31 36 24 19 23 29 31 28
67 43 31 30 38 31 21 13 13 25 54 76 71 81 82 67 39 40 55 42 37 32 28 28 28 28 28 28 24 31 42 42 39 35 26 21 20 24 47 56 44 51 43
52 44 39 36 32 26 23 18 27 49 63 77 73 49 33 33 52 84 56 24 21 22 20 23 25 28 36 54 72 43 27 32 40 38 32 26 22 30 51 56 49 56 52
45 47 62 94 62 45 32 47 62 88 88 73 36 24 31 55 38 27 22 35 44 41 43 47 52 54 62 93 96 65 41 44 41 40 34 31 29 30 33 44 59 67 71
63 77 99 92 86 77 49 82 92 95 80 37 19 20 20 27 39 34 47 55 57 57 60 61 61 63 68 74 74 75 64 52 46 43 36 34 56 75 88 84 88 89 88
75 80 88 88 80 74 70 100 100 93 36 19 17 16 34 47 61 53 55 61 64 65 66 67 66 63 64 66 64 61 59 54 48 49 74 82 99 94 96 94 92 92 89
89 98 99 98 86 80 78 100 97 74 26 21 19 38 48 50 55 60 59 60 68 67 66 61 57 54 53 53 53 53 51 48 84 100 100 95 94 96 99 96 86 98 88
91 97 67 94 97 92 78 96 98 53 30 22 36 50 51 56 60 64 66 72 75 79 80 80 85 100 100 86 86 80 83 97 99 98 100 98 98 97 99 98 98 98 98
83 97 80 61 97 81 74 98 95 30 27 26 45 49 56 60 62 69 72 78 81 80 84 92 100 100 100 100 100 100 98 97 98 97 98 99 100 100 100 100 100 100 98
79 63 96 85 93 69 95 98 66 26 32 37 46 51 57 63 69 76 82 83 86 95 98 98 99 100 100 100 100 100 99 98 98 99 99 99 99 99 97 100 98 85 78
64 66 79 83 68 86 96 95 25 29 35 44 50 55 57 64 69 76 83 88 97 99 100 99 99 100 100 100 100 100 100 100 100 99 99 100 99 97 94 85 84 71 73
74 83 96 82 89 98 96 37 29 35 40 49 53 63 63 64 68 76 80 88 93 99 100 100 100 100 99 99 100 100 100 99 100 100 100 99 100 100 89 88 86 86 79
80 72 82 77 86 96 50 32 32 38 46 54 61 70 71 63 67 75 79 87 90 97 98 99 99 99 99 99 99 99 99 100 100 100 100 100 100 98 99 89 83 91 99
84 76 87 82 99 58 28 32 34 38 48 55 61 71 73 68 69 74 78 89 93 98 100 99 99 99 99 99 99 99 100 99 99 99 99 99 98 97 99 95 93 92 83
90 85 82 90 34 25 29 31 32 36 45 54 58 67 69 66 68 76 79 86 92 98 99 99 98 99 99 99 98 98 98 98 98 100 100 99 95 97 94 93 92 90 90
85 82 79 25 23 28 30 34 34 35 40 57 67 70 70 69 70 78 76 82 93 95 98 98 99 99 99 99 99 98 80 62 97 100 100 96 96 95 90 87 86 85 83
80 63 22 19 21 28 32 35 33 37 44 61 75 80 78 80 77 73 74 78 89 94 98 99 99 99 99 99 98 78 42 28 29 61 100 98 91 88 89 86 84 84 82
63 20 19 18 22 28 31 30 33 36 45 63 77 86 84 82 78 75 76 78 88 95 97 98 99 99 100 99 95 62 42 36 35 33 31 73 96 92 87 85 85 84 82
20 19 20 21 24 27 28 28 30 35 43 60 72 76 83 82 80 76 78 80 82 91 96 98 99 99 99 99 98 92 42 35 33 31 31 31 30 49 89 93 93 92 91
20 20 21 21 23 26 26 27 33 34 37 43 52 64 76 84 80 82 83 84 85 88 94 97 99 100 100 99 99 95 67 37 32 29 27 25 24 24 26 26 27 38 59
21 21 21 22 23 26 27 33 32 34 37 41 46 49 58 81 88 86 85 86 88 88 92 96 99 100 100 100 97 82 58 44 40 40 39 36 33 28 26 23 21 20 19
24 25 24 24 25 28 30 34 33 35 38 40 43 46 50 64 88 91 90 89 91 92 92 94 96 99 100 100 99 88 68 57 54 52 50 47 44 41 38 36 34 32 29
25 26 28 29 28 30 32 38 37 37 39 40 42 44 48 53 74 90 92 90 92 93 95 96 97 98 100 100 100 100 95 81 68 62 58 55 52 48 46 43 41 39 38
27 25 28 30 29 32 34 36 40 40 42 42 39 37 38 48 61 84 94 94 94 95 96 97 99 100 100 100 100 100 100 93 78 68 61 56 52 49 46 44 42 40 40

GFSGL_700_rhum_033.txt.gz
RH
74 86 89 72 64 60 49 29 24 32 27 17 15 16 28 61 79 88 99 96 95 92 70 53 76 84 94 94 54 70 37 60 82 69 62 60 69 69 82 99 96 96 98
78 92 88 64 57 50 44 42 40 31 26 19 25 54 98 100 100 100 96 79 73 44 37 62 66 88 41 37 36 37 36 33 29 24 27 30 32 29 32 52 70 91 93
84 86 60 47 42 38 31 28 41 44 28 34 80 95 83 75 74 69 52 31 28 36 51 69 67 49 32 30 29 30 28 28 29 29 24 25 29 30 22 19 25 39 53
68 51 45 42 40 36 35 50 79 40 30 46 72 92 75 39 27 20 21 22 24 31 34 33 27 25 27 29 29 28 26 24 23 24 23 22 25 28 30 22 15 14 13
45 52 60 63 57 50 46 82 75 53 33 60 85 68 85 36 22 28 37 30 34 38 41 42 46 50 57 69 73 59 55 48 44 36 37 42 37 36 33 28 21 16 19
81 98 100 98 96 97 85 86 94 74 38 60 80 83 35 29 35 34 37 41 44 45 48 50 54 57 60 64 73 80 86 81 70 65 56 49 45 42 36 31 28 26 21
74 92 98 94 83 94 91 98 97 72 66 74 88 71 35 39 43 47 43 45 53 60 63 63 62 64 64 64 66 68 68 71 73 66 64 57 53 44 40 36 49 61 66
98 90 90 92 90 100 97 93 94 61 72 100 94 28 37 52 51 52 54 57 61 64 68 72 76 75 72 66 57 56 58 62 64 64 61 52 52 60 92 97 98 96 89
45 54 64 70 96 93 97 96 97 81 98 100 64 30 52 48 50 55 56 57 60 70 78 80 81 83 85 91 95 94 64 57 69 71 67 68 88 98 100 100 94 97 85
70 81 78 68 79 94 97 95 60 66 91 94 23 45 48 52 56 60 56 60 68 74 81 89 98 100 100 100 97 93 96 99 94 96 100 100 98 98 100 100 98 95 98
85 82 80 78 78 93 96 71 88 99 88 38 34 41 49 55 60 57 60 65 74 80 90 91 98 100 100 100 100 100 98 96 98 98 99 100 100 100 100 100 100 100 100
73 75 72 65 74 97 80 86 100 96 65 30 36 49 56 60 60 60 64 77 82 90 94 98 99 99 100 100 100 100 100 99 100 100 100 100 100 99 98 99 98 99 96
66 68 74 64 73 80 79 93 98 60 28 31 39 50 57 61 64 64 69 78 84 94 97 98 98 99 100 100 100 100 100 100 100 100 100 100 99 99 100 99 87 80 74
64 72 73 73 58 77 84 90 60 27 29 35 41 50 58 65 66 62 65 68 81 93 100 100 99 100 99 99 100 100 100 100 99 99 99 99 100 100 100 90 88 83 78
65 71 83 82 76 78 79 28 25 29 32 33 44 56 60 68 68 63 65 66 77 90 97 99 100 100 100 100 100 100 99 99 99 98 98 99 100 100 100 97 94 92 89
67 84 80 77 78 52 22 27 28 30 32 35 45 58 67 70 70 66 64 70 78 93 98 98 99 99 98 99 99 99 99 100 100 100 99 98 99 100 100 97 97 93 94
81 87 75 75 37 20 25 24 26 32 32 34 43 57 69 68 68 67 69 76 78 91 98 99 98 98 99 98 99 99 98 97 99 99 100 100 100 100 97 98 98 97 96
81 74 76 32 17 18 21 24 25 25 25 32 43 58 70 70 68 75 77 76 79 92 96 98 98 98 99 100 100 98 86 35 49 95 100 100 100 98 96 95 94 93 93
72 77 37 16 16 17 21 23 24 24 29 31 37 53 66 72 79 81 82 74 75 83 93 98 98 98 99 100 98 96 83 43 38 34 51 99 100 99 93 92 91 86 84
75 38 19 18 18 20 21 22 23 28 28 29 32 42 51 63 82 82 81 76 77 81 90 96 99 99 99 100 99 87 50 40 37 34 34 33 55 100 99 93 89 86 86
48 21 18 18 19 20 21 23 24 28 27 31 33 36 40 47 68 82 78 81 81 83 88 94 98 99 100 99 100 99 97 57 34 31 28 28 28 31 30 48 77 89 92
27 21 20 20 21 21 22 24 28 28 28 32 34 36 42 45 51 77 84 86 86 85 88 93 96 99 100 100 99 99 99 92 64 43 39 35 30 27 23 21 22 23 24
30 25 23 24 24 23 24 25 31 31 29 32 37 37 38 39 43 61 85 89 89 90 89 92 96 97 99 100 100 99 97 83 69 56 52 49 45 42 38 34 32 30 28
29 28 25 25 27 28 26 28 30 34 34 35 40 40 37 35 38 46 72 90 92 91 91 92 96 99 100 100 100 100 99 97 88 71 62 57 53 50 46 44 42 40 37
36 30 28 26 26 29 28 30 32 35 38 38 42 46 44 41 39 42 48 78 90 94 94 94 96 99 100 100 100 100 100 100 99 94 76 63 56 53 49 46 44 42 41
72 42 30 29 26 27 28 30 33 34 36 40 46 53 54 52 45 42 44 58 85 96 98 99 98 99 100 100 100 100 100 100 100 100 95 79 63 55 51 48 45 43 41

GFSGL_700_rhum_036.txt.gz
RH
100 88 70 80 80 61 48 39 37 34 38 52 48 32 25 22 31 67 80 94 96 93 77 43 44 46 99 96 88 83 76 57 37 36 35 31 34 41 53 81 75 82 95
59 53 62 49 41 46 48 40 43 43 52 79 37 26 26 35 46 64 42 26 32 35 40 42 54 58 54 59 52 47 37 33 34 29 28 26 27 26 26 30 37 49 62
40 30 28 38 46 65 64 62 63 69 66 73 61 34 26 51 58 32 39 29 29 33 40 32 30 32 29 30 30 27 23 23 24 25 24 24 24 23 25 28 29 26 32
24 35 51 61 60 51 80 75 85 91 97 87 98 37 51 74 86 48 28 31 25 28 36 42 43 44 44 46 47 46 47 47 44 35 28 28 29 28 26 21 22 27 24
27 62 81 85 84 87 84 92 79 98 98 97 93 58 82 95 94 27 25 29 33 36 43 48 52 55 57 60 61 59 58 57 58 60 56 50 49 49 42 30 25 21 22
95 94 96 94 76 66 83 95 90 77 98 92 55 78 100 100 29 23 29 33 39 47 49 53 58 61 64 66 68 69 67 67 66 65 66 63 56 58 56 54 43 34 25
92 82 64 46 43 62 86 78 73 88 95 98 86 100 100 47 22 24 33 40 47 49 53 60 65 72 77 78 79 80 70 64 63 68 67 61 61 60 59 49 43 37 30
14 15 17 31 74 95 90 67 70 98 96 98 97 100 60 31 28 34 40 47 52 53 61 70 75 78 83 86 87 87 87 87 81 60 59 60 61 57 55 50 45 52 56
12 18 41 71 71 59 62 60 75 94 64 83 96 86 33 32 34 36 45 53 51 53 65 75 85 89 94 96 93 93 94 99 100 95 68 58 58 55 58 66 72 86 81
21 43 71 68 54 61 64 87 93 60 96 100 96 41 31 36 37 42 52 53 47 55 65 80 87 89 92 95 97 96 93 98 99 100 99 91 87 74 89 95 99 95 100
26 53 58 60 65 62 73 73 69 89 100 100 38 33 34 38 42 50 58 52 51 59 70 83 89 94 98 100 100 100 98 99 100 100 100 100 100 100 98 99 100 95 92
44 58 59 74 73 70 53 63 82 91 98 32 31 34 38 42 47 55 60 56 60 66 77 87 92 97 98 100 100 100 100 100 100 100 100 100 100 100 100 100 100 98 100
50 56 64 77 75 80 74 77 82 81 30 29 31 34 37 46 51 59 61 59 63 68 82 92 96 99 99 100 100 100 100 100 100 100 100 100 100 100 100 100 100 99 97
49 52 57 66 83 79 81 81 65 24 27 28 31 31 39 53 56 62 58 55 60 70 88 97 99 98 98 98 99 100 100 100 100 100 100 100 99 100 100 100 100 99 86
52 61 64 77 79 74 77 41 22 25 26 27 29 33 43 53 60 62 61 55 58 69 86 96 99 100 100 100 99 99 100 100 100 99 100 99 99 100 100 100 95 92 95
58 69 77 80 74 76 26 19 24 25 26 26 28 34 45 51 59 65 64 59 62 70 85 93 98 99 98 98 99 99 100 100 100 100 100 100 100 100 98 94 98 99 94
60 68 74 72 73 24 17 18 25 28 28 27 31 33 36 43 53 63 66 64 67 70 82 92 98 99 98 98 98 99 98 50 56 98 99 100 100 97 96 97 97 95 91
58 64 72 74 26 17 17 18 21 22 23 30 29 30 31 37 42 55 68 70 75 74 77 88 96 98 99 98 99 99 90 66 39 39 92 100 100 100 100 99 99 97 96
63 72 69 34 18 19 20 20 21 22 27 28 30 32 33 36 40 48 75 78 74 73 76 84 93 99 99 99 99 98 78 52 39 38 38 58 100 100 100 100 98 95 93
69 68 37 22 20 20 21 21 24 24 28 27 31 34 34 34 38 46 72 82 75 76 79 81 89 96 99 100 100 100 95 52 36 33 32 33 35 52 95 100 99 96 94
57 44 27 21 22 21 21 22 25 26 30 27 31 36 37 35 35 38 49 79 80 78 83 84 88 94 97 98 100 100 100 99 91 47 37 31 26 24 26 30 31 52 72
48 34 32 28 25 25 25 24 26 29 32 31 32 38 40 36 34 35 37 58 81 82 84 86 89 92 97 99 99 99 99 99 96 84 70 50 43 38 33 29 24 22 21
57 38 31 28 26 25 28 28 28 30 33 36 34 38 44 44 41 39 36 39 67 86 85 86 90 93 93 96 98 99 100 100 99 93 76 64 54 49 45 42 39 36 34
80 73 55 36 28 26 26 30 30 30 32 33 37 40 46 50 51 46 41 38 42 75 87 88 90 94 95 94 96 98 99 99 100 100 96 80 64 56 52 50 47 44 42
94 95 96 78 41 30 28 27 28 30 34 34 34 39 46 54 58 54 48 46 42 44 73 89 90 95 96 97 96 98 99 100 100 100 100 97 79 62 54 51 48 45 44
94 94 92 94 76 40 31 31 32 34 36 37 35 38 46 55 63 65 56 54 51 45 45 74 92 96 96 98 98 99 99 99 100 100 100 100 99 94 77 57 47 44 41

GFSGL_700_rhum_039.txt.gz
RH
66 68 60 45 33 26 28 36 27 26 63 79 68 69 87 81 55 32 44 46 50 38 26 21 25 29 32 40 58 58 56 86 55 61 57 28 26 27 31 31 34 58 76
48 39 26 15 15 20 39 72 66 75 78 84 86 80 98 100 87 39 45 59 58 24 16 18 21 26 29 34 36 38 42 41 37 25 19 18 21 22 25 26 25 26 38
25 15 13 14 29 55 81 90 83 66 84 90 84 60 71 94 82 63 60 72 39 21 21 25 32 35 36 38 40 41 43 45 47 46 39 36 26 21 20 21 23 23 25
13 12 15 44 88 85 74 48 41 57 76 79 55 80 97 68 75 79 82 44 31 30 33 37 42 44 43 43 45 47 50 54 57 60 54 52 50 45 39 34 24 20 20
12 15 46 78 62 33 27 70 79 75 78 60 87 96 90 88 100 100 71 28 34 35 40 44 45 46 48 52 56 59 62 63 63 63 62 63 59 60 63 58 51 39 20
11 15 12 11 12 14 18 28 42 54 56 46 99 94 98 100 97 79 27 30 36 37 41 46 49 50 57 65 71 76 76 76 75 76 68 63 63 65 68 69 59 57 41
10 9 10 11 15 17 30 39 47 57 67 77 92 88 99 98 89 35 29 36 39 45 48 51 52 57 65 73 82 89 91 92 90 85 79 73 59 60 67 65 62 58 49
8 9 12 15 19 33 37 43 50 60 87 78 73 84 90 90 46 31 37 42 47 51 58 55 57 61 78 84 86 89 94 96 100 100 100 95 82 58 58 62 61 56 50
9 12 20 28 35 42 43 54 47 84 67 63 77 88 94 42 33 36 33 39 48 53 54 56 59 74 86 92 96 94 97 100 100 100 95 91 93 81 68 67 58 61 48
14 25 30 38 45 44 52 66 46 58 68 68 87 96 29 30 33 31 35 46 48 48 50 56 69 85 90 96 98 98 96 99 100 100 100 99 97 90 79 73 78 80 96
21 26 33 43 50 46 62 74 83 74 78 83 88 28 28 29 32 37 50 54 52 50 53 60 80 92 95 98 99 100 100 99 100 100 100 100 100 100 100 99 100 100 99
21 26 33 44 51 53 67 85 88 89 83 73 25 28 28 30 33 45 55 60 58 55 56 66 85 92 94 97 99 99 100 100 100 100 100 100 100 100 100 100 100 100 98
22 25 32 43 55 65 84 78 82 83 55 22 24 28 28 30 39 49 56 60 60 56 58 74 90 95 95 98 100 100 99 100 100 100 100 100 100 100 100 100 100 99 98
24 28 40 55 68 83 83 79 85 42 23 25 27 26 28 33 40 49 55 57 56 58 59 75 90 94 95 97 99 99 99 99 99 100 100 100 100 100 100 100 100 100 100
26 31 44 60 78 86 80 73 26 22 26 26 26 26 30 32 35 39 45 54 57 57 60 74 90 97 100 100 100 99 99 99 100 100 100 100 100 100 100 100 100 100 100
29 38 54 61 73 80 67 26 20 21 25 25 22 27 29 29 31 34 40 57 60 61 64 71 87 95 98 98 100 99 99 91 86 99 99 100 100 99 100 100 100 100 99
36 50 60 68 77 69 25 19 18 22 25 24 25 28 30 31 32 34 37 54 62 64 70 73 84 93 98 99 99 99 99 92 42 44 100 100 100 100 100 100 98 100 100
46 60 67 74 56 28 20 21 21 22 25 27 28 28 32 33 32 32 34 43 66 72 73 73 80 91 97 100 100 99 98 96 71 39 40 90 100 100 100 97 95 98 97
56 67 66 61 33 23 21 21 21 21 22 24 28 26 32 35 34 31 30 33 59 72 73 74 77 85 94 98 100 100 99 92 49 34 33 36 50 99 100 100 98 97 97
67 72 58 44 31 24 22 22 22 22 23 24 29 27 32 38 38 35 33 31 39 67 72 72 77 81 88 95 99 100 100 99 94 49 36 30 27 31 51 93 100 99 97
76 75 67 39 31 28 25 24 24 24 24 26 32 30 30 38 42 41 39 35 32 44 72 73 77 82 86 90 95 96 100 100 99 98 89 52 42 35 26 23 28 30 47
85 85 78 62 44 33 28 25 26 28 27 27 32 36 36 38 45 48 46 40 37 34 48 76 77 79 84 91 93 97 97 100 100 99 98 97 82 52 44 38 34 30 25
85 89 87 85 86 71 41 30 26 28 30 30 32 36 40 40 44 52 54 47 43 40 36 52 79 80 79 85 89 94 97 98 100 100 100 98 96 85 64 50 46 43 40
81 90 92 94 96 96 89 45 32 29 29 31 32 36 38 40 45 51 59 58 51 46 42 39 52 80 82 82 87 89 92 96 97 99 100 100 98 90 74 60 52 48 45
74 90 96 98 97 96 98 80 43 33 33 33 34 38 42 41 42 50 59 66 63 56 48 43 40 49 79 83 84 88 91 93 97 98 100 100 100 96 81 67 55 49 46
73 90 98 100 100 99 97 97 78 48 36 37 38 39 43 44 44 51 59 68 74 67 61 51 42 39 47 76 84 86 90 93 96 99 100 100 100 100 98 86 67 54 50

GFSGL_700_rhum_042.txt.gz
RH
65 49 42 28 16 13 13 12 13 22 41 46 48 71 83 78 56 94 98 95 95 75 66 60 20 16 20 31 38 41 42 52 41 24 26 24 24 22 19 16 18 20 30
52 41 26 16 13 12 18 33 44 36 27 45 65 75 83 58 58 100 93 84 72 71 77 20 21 26 34 40 42 44 45 50 53 45 40 40 38 36 32 23 18 18 21
39 26 15 12 15 22 26 19 12 14 22 48 65 57 58 64 100 85 84 73 77 86 32 24 28 35 39 42 41 40 42 48 54 55 48 47 47 50 48 40 33 27 18
23 14 12 10 8 7 7 8 10 17 27 33 39 57 64 96 96 94 88 100 90 37 27 34 39 43 44 42 40 44 52 58 64 68 65 63 62 60 64 58 51 49 35
14 12 9 7 7 7 8 10 13 25 31 39 44 57 73 98 93 100 100 88 48 27 36 41 45 47 47 46 51 56 64 73 79 81 78 76 75 73 70 71 65 58 50
12 10 8 7 7 9 13 18 30 34 42 37 50 82 84 69 97 100 85 51 27 32 34 41 43 46 46 52 60 73 85 86 89 92 92 93 88 83 76 70 70 65 52
10 8 8 8 9 14 21 30 35 37 40 39 69 69 64 74 84 80 34 26 29 34 41 43 45 45 50 56 72 85 88 94 98 100 100 99 94 99 93 75 63 65 59
9 8 9 10 14 21 28 34 35 42 48 41 50 56 61 71 71 26 27 29 35 44 46 48 47 45 56 70 82 87 96 100 100 100 100 100 100 98 100 99 70 63 60
10 10 12 14 17 22 31 40 40 50 63 64 59 67 72 76 25 25 25 29 35 40 48 52 47 51 68 87 89 93 95 98 100 100 100 100 99 100 100 100 78 68 57
11 13 16 18 20 24 38 45 50 62 82 88 84 81 78 27 26 24 26 32 36 44 47 51 53 61 82 94 97 97 95 98 100 100 100 100 100 100 100 100 86 69 65
14 16 19 21 21 28 47 50 57 77 80 90 94 71 25 24 23 26 31 35 40 45 50 54 55 72 90 98 100 99 99 98 100 100 100 100 100 100 100 100 100 97 93
17 19 23 23 24 33 52 68 77 78 79 88 57 24 24 23 25 28 29 36 42 52 57 55 58 74 90 96 99 99 100 100 100 100 100 99 100 100 100 100 100 100 100
20 23 27 28 29 40 55 72 80 77 78 34 26 26 25 24 27 26 28 32 41 56 58 56 60 76 91 96 98 99 99 99 100 100 100 99 97 100 100 100 100 100 100
24 28 32 32 34 48 59 71 76 68 24 25 27 26 23 26 27 28 28 31 37 54 59 58 61 75 88 93 97 98 99 100 99 100 100 99 99 100 100 100 100 100 100
29 32 36 36 46 57 67 75 59 26 22 23 25 25 24 27 29 29 29 30 34 52 58 62 64 76 92 98 100 100 99 100 94 100 100 100 100 100 100 100 99 100 100
31 38 40 43 54 65 72 55 25 20 20 22 24 23 26 26 31 31 30 30 32 49 57 62 67 72 86 94 99 100 99 98 48 51 99 100 100 100 100 100 100 100 100
37 42 48 52 63 67 51 26 20 22 22 23 24 24 26 24 32 34 32 30 29 37 56 65 68 71 80 91 97 100 100 99 98 45 44 98 99 100 98 97 96 98 100
43 48 56 63 68 54 36 23 21 21 24 26 25 25 27 25 31 37 36 34 31 31 47 65 69 71 76 84 93 99 100 100 89 59 33 37 75 100 100 100 99 94 91
48 53 64 75 75 54 34 30 25 24 23 24 28 28 30 27 29 38 41 38 35 32 34 57 68 70 74 80 88 93 95 100 100 89 45 34 29 41 94 100 100 96 92
56 60 70 82 82 66 43 31 28 26 27 26 27 29 32 33 31 34 43 45 40 36 34 36 62 69 74 77 82 90 94 95 100 100 98 60 45 35 27 42 83 100 99
64 68 71 82 88 82 76 66 42 30 26 29 30 30 32 37 38 35 39 48 49 42 38 36 40 65 75 76 79 83 88 94 94 98 100 100 88 52 43 36 26 25 29
70 68 70 84 94 93 90 94 94 58 31 27 32 34 32 35 40 41 39 46 54 52 46 40 38 40 68 79 79 80 84 90 93 93 94 99 100 98 81 52 44 38 34
72 70 67 78 96 98 97 100 99 99 60 33 31 33 36 37 39 41 41 44 54 60 57 48 41 38 41 70 81 80 82 86 92 95 96 97 99 99 98 94 80 51 46
74 72 67 74 96 100 100 100 100 98 92 52 36 35 33 34 40 44 43 43 50 62 67 62 51 41 37 41 69 82 82 84 88 94 97 99 100 99 99 97 85 72 58
83 78 73 80 96 100 100 100 100 99 99 96 64 41 39 40 41 47 46 45 61 70 77 73 66 54 44 40 41 63 83 84 87 92 97 99 100 100 100 99 98 85 66
89 83 78 82 92 100 100 100 99 99 99 99 100 91 53 43 46 52 59 68 92 97 97 94 79 72 60 50 46 47 60 85 90 93 98 100 100 100 100 99 99 94 82

GFSGL_700_rhum_045.txt.gz
RH
99 85 59 49 29 15 12 9 7 6 7 8 11 20 31 50 54 64 72 96 100 88 78 73 74 55 21 25 31 37 42 44 38 32 32 32 33 32 33 37 33 24 17
89 90 68 24 15 12 9 7 6 6 7 10 14 23 34 44 82 79 99 91 85 94 92 79 65 25 27 32 36 40 43 46 43 41 36 41 46 46 45 43 44 43 30
68 42 23 15 12 9 7 6 6 7 9 13 20 28 39 61 57 72 100 97 99 95 97 78 26 27 30 35 40 41 43 43 46 53 46 59 60 61 61 60 53 50 44
41 22 15 13 10 8 7 6 7 9 13 19 25 37 35 50 57 98 97 98 100 97 88 26 29 33 38 41 43 44 45 51 58 66 71 74 78 77 75 72 68 60 53
28 17 14 11 9 8 7 8 10 12 20 24 30 28 40 65 75 68 69 85 94 67 24 29 33 41 45 47 46 49 57 67 79 83 83 84 89 89 91 85 78 72 63
20 16 13 10 8 9 9 10 12 18 26 27 41 35 38 46 48 57 75 77 23 20 22 28 38 40 42 42 47 59 76 85 90 97 96 94 93 97 97 99 93 84 70
17 14 11 9 9 10 11 13 16 21 29 34 46 58 46 56 64 73 48 18 20 23 29 34 38 40 42 42 54 75 90 99 100 100 100 100 96 100 100 98 100 100 82
15 12 10 10 11 12 15 16 19 24 34 42 58 77 84 79 76 44 19 20 24 28 33 38 38 39 43 49 67 83 91 96 100 100 100 100 100 100 100 100 100 100 98
14 11 10 11 14 15 18 19 22 33 48 55 75 84 91 84 42 20 18 23 26 29 33 38 43 40 46 62 80 88 91 98 100 100 100 100 100 100 100 100 100 100 100
12 11 11 13 16 19 20 22 24 42 62 73 77 79 84 49 22 19 23 25 25 26 30 36 45 50 53 71 86 92 92 96 98 98 100 100 100 100 100 100 100 100 95
11 11 13 18 21 22 24 27 33 49 64 76 80 91 55 24 20 22 25 25 26 28 30 40 51 53 59 77 90 95 96 96 98 98 99 100 99 100 100 100 100 100 99
11 12 17 22 24 26 31 32 44 56 68 78 81 40 24 22 20 25 26 26 27 28 35 50 53 54 64 82 91 95 97 99 99 99 100 100 98 99 100 100 100 100 100
12 16 21 25 26 33 33 40 53 65 73 61 22 24 26 22 23 26 28 28 28 31 39 51 56 58 66 83 91 94 95 99 99 100 100 100 99 99 100 100 98 100 100
17 22 27 28 33 36 38 48 60 67 50 26 21 23 25 22 24 28 30 29 29 29 34 52 55 59 64 80 91 97 97 99 91 96 100 100 100 100 100 100 98 100 100
21 30 34 34 37 44 47 56 60 44 24 19 19 22 23 23 25 28 32 31 30 29 30 48 56 62 69 82 93 98 98 100 83 45 95 100 100 100 100 100 100 99 100
28 36 38 39 45 52 59 60 47 29 21 20 21 21 24 23 25 26 34 35 33 32 30 35 53 61 67 74 86 97 99 98 99 71 42 96 100 100 100 100 100 100 98
33 38 42 48 52 61 68 62 42 28 23 20 22 21 22 23 27 26 33 38 38 35 32 31 44 60 66 71 78 88 96 100 98 86 44 36 88 100 100 99 100 100 94
40 46 51 54 60 69 76 70 50 34 27 25 22 23 25 24 28 28 29 39 42 39 36 32 34 53 63 68 75 82 91 98 100 100 68 40 31 66 100 100 98 98 99
46 52 58 60 66 73 85 82 67 52 36 28 26 27 26 27 30 32 32 34 45 46 41 37 34 36 58 64 70 76 81 88 94 99 100 78 47 35 30 68 99 100 100
48 61 66 66 69 74 90 93 85 83 79 54 31 28 30 30 33 36 36 36 38 49 50 44 38 35 39 58 67 72 77 82 87 92 96 98 95 54 43 32 31 56 96
52 67 74 76 73 70 86 99 98 93 93 91 72 33 29 32 35 36 38 39 40 45 54 53 46 38 36 39 61 68 72 77 82 88 92 96 99 100 73 49 40 32 25
54 69 76 78 77 74 83 100 100 100 99 96 96 69 35 31 35 36 38 39 40 43 51 60 57 49 38 35 39 62 70 72 76 81 87 91 95 99 99 97 62 48 41
63 77 82 85 84 77 82 100 100 100 99 100 99 97 61 38 35 35 37 42 42 42 46 58 66 62 50 40 36 39 60 71 74 78 83 88 92 97 99 98 98 95 63
67 81 88 91 88 83 85 93 100 100 100 100 99 99 99 83 43 39 41 42 47 49 49 72 87 81 66 52 43 40 41 58 74 77 81 86 91 95 99 100 100 98 94
78 91 97 98 92 86 88 96 100 100 100 99 98 99 99 99 98 65 48 47 50 54 57 89 99 99 85 70 57 49 46 44 60 78 81 84 89 95 99 100 100 100 100
92 96 97 99 96 88 82 81 88 99 100 100 100 99 99 98 99 100 99 96 86 87 98 98 100 100 100 88 76 64 57 53 49 63 82 87 90 95 98 100 100 100 100

GFSGL_700_rhum_048.txt.gz
RH
99 99 87 73 52 39 22 15 11 8 6 6 6 7 10 22 85 76 80 78 62 77 91 87 91 94 90 76 63 64 50 79 100 92 95 80 57 94 100 100 70 78 94
98 77 65 59 41 23 16 12 9 7 6 6 7 9 13 18 59 36 34 49 61 100 98 96 97 95 90 25 41 66 90 86 100 100 65 100 97 100 100 100 65 58 89
92 72 61 41 24 18 14 10 8 7 7 8 10 13 17 23 26 34 47 58 98 97 88 97 91 82 23 24 29 38 60 54 45 46 40 62 80 90 96 87 79 71 84
90 72 43 27 21 16 11 9 8 8 9 10 12 17 22 34 29 36 48 59 64 67 78 76 40 22 23 31 37 40 46 46 46 54 65 77 83 95 100 99 100 100 100
82 49 32 24 17 12 10 9 10 11 12 12 15 21 29 42 42 40 49 57 68 74 38 22 22 26 34 37 38 42 45 51 64 80 83 86 89 100 100 100 100 100 100
55 36 26 18 14 11 9 10 12 13 14 15 21 32 39 51 67 62 64 76 62 20 19 23 30 31 32 37 37 43 51 70 85 92 91 94 100 100 100 100 100 100 100
41 29 20 15 12 10 10 11 13 15 16 20 28 47 54 64 80 88 84 58 20 19 24 26 28 31 32 37 40 47 67 86 95 100 100 99 100 100 100 100 100 100 100
34 23 17 13 10 9 10 13 16 18 21 24 35 58 73 79 85 89 53 20 20 24 24 25 27 32 37 43 44 57 80 95 100 100 100 100 100 100 100 100 100 100 100
26 19 14 10 8 9 12 16 20 22 25 29 40 65 82 80 84 55 20 20 24 24 24 25 27 39 42 48 52 70 85 95 100 100 100 100 100 100 100 100 97 100 97
23 15 10 7 9 12 16 22 23 26 28 36 53 73 77 82 61 21 21 25 25 24 24 25 27 37 48 53 63 80 89 96 98 98 100 100 100 100 100 100 100 100 99
15 9 7 9 12 16 23 24 26 29 34 46 59 69 77 53 23 22 22 26 26 24 24 24 31 44 52 56 71 87 92 93 96 97 98 100 100 97 99 98 98 100 100
8 7 9 12 17 24 26 28 32 37 43 55 64 62 29 22 23 21 25 29 28 25 24 25 32 44 52 58 74 89 91 90 96 98 98 99 99 97 97 98 96 98 100
8 10 13 17 26 30 30 34 40 45 53 58 49 28 21 21 23 21 26 30 30 27 26 26 32 44 51 57 68 87 89 89 94 81 100 100 100 100 99 100 98 100 100
12 15 19 24 30 34 37 40 46 52 54 44 27 20 20 21 25 24 24 31 32 30 28 26 28 41 49 56 64 80 90 90 92 74 62 100 100 100 100 99 96 99 100
21 24 25 28 34 36 44 48 56 58 53 36 25 20 20 23 25 26 26 29 34 33 31 28 27 34 49 59 67 75 88 94 93 94 52 74 100 100 100 100 99 99 100
32 31 28 33 42 45 51 54 61 64 58 43 27 21 21 22 25 25 27 26 34 38 35 31 29 29 40 55 63 70 80 91 96 96 91 39 75 100 100 100 100 99 100
40 36 31 33 50 54 58 62 65 73 65 53 35 26 24 23 23 26 28 27 28 38 40 36 33 30 31 46 59 65 73 83 91 96 96 71 33 72 100 100 99 99 99
49 43 36 37 56 63 66 66 70 80 78 70 62 49 29 25 25 26 28 30 29 32 43 44 39 34 30 33 52 62 67 77 85 92 97 96 66 34 46 99 100 98 97
47 46 43 41 59 73 77 76 72 84 91 84 82 79 60 33 26 29 29 31 34 35 37 48 48 42 35 31 35 54 62 67 77 84 90 97 97 68 41 32 82 100 98
64 59 51 46 62 74 77 81 76 81 94 96 93 93 90 72 31 28 31 31 35 39 40 43 53 52 45 35 31 36 55 61 67 74 82 89 95 98 78 45 34 31 71
78 75 65 55 59 82 86 86 83 83 94 100 100 100 98 94 62 32 32 34 35 39 41 42 48 57 56 47 36 32 37 56 63 68 76 84 90 95 97 91 50 41 32
66 64 73 71 65 86 94 93 88 89 98 100 100 100 100 96 93 55 35 34 36 38 43 45 47 53 62 61 48 38 34 36 54 63 70 78 85 90 94 97 97 62 48
78 70 72 76 80 92 96 95 94 98 100 100 100 100 100 97 97 96 74 44 40 40 42 50 51 55 70 81 66 49 41 38 39 54 65 72 80 86 91 95 98 98 94
97 71 88 90 98 100 100 98 98 99 100 100 100 100 99 98 100 99 99 96 56 45 46 50 56 56 77 98 88 67 51 45 42 43 57 71 76 81 88 93 98 100 99
95 71 83 93 100 100 100 100 98 94 92 99 100 100 100 100 100 100 100 100 99 97 86 65 64 68 84 100 100 88 69 56 51 47 47 62 76 81 85 90 94 97 99
88 84 90 95 100 100 100 98 80 70 67 70 74 79 89 99 100 99 100 100 100 99 100 99 100 100 100 100 100 100 94 75 63 58 52 50 65 82 87 89 92 94 97

GFSGL_700_rhum_051.txt.gz
RH
100 100 99 100 89 66 52 35 26 18 13 9 7 6 6 7 8 34 20 62 61 50 37 58 65 96 78 80 90 96 100 100 94 87 93 100 100 97 100 99 97 97 84
100 99 99 89 79 63 42 27 18 14 10 8 6 6 8 8 12 14 20 24 28 38 64 89 98 95 90 85 92 100 100 100 97 94 96 100 87 68 88 89 97 100 98
99 95 92 94 81 41 29 21 16 11 8 6 6 8 9 11 16 20 31 32 33 41 51 84 64 74 64 32 26 30 43 50 52 70 76 94 56 62 82 84 89 100 100
98 94 89 77 48 32 25 19 12 9 6 6 8 10 11 14 22 25 39 48 42 46 54 62 64 24 15 20 25 28 31 38 43 45 43 60 74 81 89 96 100 100 100
88 82 80 57 37 30 22 14 9 6 7 8 12 15 15 19 25 44 54 71 71 69 77 42 17 18 24 22 26 26 35 39 40 47 62 78 86 90 100 100 100 100 100
92 89 69 46 34 26 15 10 6 7 10 12 16 17 24 33 42 66 83 94 94 88 36 17 22 24 22 23 25 24 32 42 48 69 84 88 90 96 100 100 100 100 92
97 82 54 40 32 16 10 7 8 9 12 14 18 22 28 86 66 91 96 95 92 29 18 23 22 23 23 24 37 40 44 52 69 85 88 92 98 100 100 97 99 98 94
91 72 78 42 17 10 7 7 9 13 16 18 20 23 33 85 75 92 90 90 31 20 24 23 21 22 24 32 36 41 48 63 83 90 97 98 100 100 100 100 96 100 94
93 89 43 17 9 6 7 9 13 17 20 20 26 32 43 66 75 89 91 35 21 24 25 23 21 23 27 38 41 45 56 75 86 91 93 96 95 97 100 97 96 99 89
78 64 32 8 7 8 9 12 17 22 25 26 36 47 53 76 74 82 35 23 21 26 26 24 20 21 27 36 43 50 63 81 85 85 91 95 95 96 99 100 99 100 100
60 23 8 7 9 11 14 16 21 26 25 35 40 50 61 65 49 22 25 24 22 27 27 25 24 22 27 38 46 53 69 83 86 87 88 92 94 97 96 92 96 95 84
34 9 8 10 14 17 18 20 27 32 37 40 46 51 49 34 24 20 27 24 24 28 29 26 24 22 25 34 45 54 68 86 88 89 76 83 94 95 92 90 94 92 95
13 9 10 17 22 25 25 28 32 39 46 51 53 49 36 24 21 18 22 25 24 29 31 29 26 24 23 30 38 52 65 80 88 91 92 72 94 97 96 93 92 83 94
10 12 18 19 25 28 28 37 43 45 48 54 57 52 35 23 21 22 20 22 25 26 33 33 29 26 24 23 29 44 60 73 87 90 92 80 75 98 98 96 92 92 100
11 18 20 22 34 33 29 36 53 56 59 65 67 57 44 28 22 22 25 25 25 25 29 36 35 30 26 24 30 44 56 69 80 91 96 95 70 86 98 98 96 95 96
15 22 30 37 41 41 37 34 53 60 66 70 76 67 52 36 27 24 24 26 27 29 29 34 39 36 31 26 26 38 51 62 73 82 93 98 93 60 94 98 97 98 96
17 27 44 48 46 45 41 40 54 67 71 68 79 78 68 61 42 28 26 27 27 29 30 31 40 43 38 32 27 29 44 55 65 74 82 93 99 84 42 95 98 97 97
23 28 33 44 62 62 51 48 58 69 74 76 80 83 81 81 77 54 30 28 28 29 34 34 36 43 47 41 33 28 32 49 58 66 75 83 93 98 69 35 90 98 96
29 27 30 36 64 74 67 58 60 75 84 82 80 92 92 89 90 87 55 29 30 32 34 37 37 38 46 50 44 34 30 36 52 60 68 76 84 93 98 63 35 71 100
30 38 45 44 57 52 55 70 66 80 92 93 88 90 100 98 94 90 89 49 31 33 36 39 42 42 42 51 54 48 36 31 36 52 60 69 77 86 94 97 62 36 34
30 43 75 76 77 80 65 82 92 99 98 99 98 99 100 100 99 98 99 90 48 34 36 40 41 44 45 46 57 61 50 38 35 40 56 63 70 79 86 93 97 67 42
37 79 89 76 77 80 67 85 96 100 100 99 99 100 99 98 99 98 98 99 98 64 43 39 41 45 48 47 55 70 73 50 40 38 43 58 65 72 80 87 92 97 80
62 100 97 77 82 69 63 79 90 99 100 100 100 100 100 100 98 98 98 99 99 100 96 57 46 47 51 51 53 70 92 73 50 44 41 47 62 67 74 82 87 91 96
60 99 65 98 95 81 83 89 100 100 100 100 100 100 100 100 100 100 100 100 100 100 100 100 95 69 55 55 59 63 96 95 70 52 48 44 52 67 70 76 84 89 93
61 95 100 99 88 94 97 93 99 100 100 100 100 89 81 86 99 100 100 100 100 100 100 100 100 100 99 89 80 83 99 100 93 69 56 52 47 58 72 74 81 87 90
100 100 100 97 96 99 100 100 99 100 99 95 65 57 56 56 61 67 69 75 94 100 100 100 100 100 100 100 100 100 100 100 100 99 76 62 56 51 59 75 80 85 89

GFSGL_700_rhum_057.txt.gz
RH
79 92 99 100 100 98 100 99 83 76 71 56 45 35 20 11 6 6 6 8 10 13 17 26 30 40 41 45 44 72 75 98 95 39 15 17 19 22 23 22 21 22 24
94 100 100 99 99 99 100 93 84 78 64 40 52 22 12 7 6 7 9 11 13 16 20 32 43 52 54 52 54 60 95 64 18 19 16 17 19 22 24 25 24 24 34
99 100 100 99 97 99 97 94 84 58 33 77 41 23 12 6 7 9 12 15 17 22 29 45 57 66 68 72 74 40 16 20 20 19 18 19 21 24 28 32 36 44 62
100 100 98 97 99 98 96 87 72 52 73 65 51 16 6 8 10 13 15 19 22 28 45 69 76 76 80 81 18 19 20 18 17 18 18 22 27 33 43 51 56 70 69
100 100 97 98 98 93 94 88 74 92 90 80 28 8 8 12 16 19 19 23 30 42 87 89 84 82 88 23 20 21 17 16 16 19 22 26 39 55 66 71 72 75 74
99 99 99 100 98 98 98 94 95 95 80 22 8 9 11 16 21 20 27 31 39 89 100 100 88 93 31 21 22 18 16 16 18 26 33 42 60 74 78 79 79 80 68
93 96 99 98 98 99 96 96 88 41 10 9 10 12 15 21 21 25 31 38 50 88 99 96 95 38 21 25 22 19 20 25 30 39 39 61 72 77 75 77 83 85 82
99 96 93 95 96 95 86 35 15 8 9 10 14 18 21 24 26 31 39 45 55 68 76 88 38 22 25 26 22 19 20 22 29 36 49 70 78 76 77 82 84 80 80
94 95 99 95 93 51 12 8 8 8 9 10 17 22 24 24 32 40 47 48 48 42 34 31 27 23 27 28 23 19 18 21 28 42 56 75 80 81 77 84 86 84 70
100 97 95 93 58 22 8 8 10 10 10 11 18 26 28 35 41 49 52 48 35 25 23 26 27 25 30 30 26 22 19 19 24 38 54 76 84 83 78 87 91 82 75
94 94 87 40 11 9 10 12 12 11 12 14 21 32 34 41 48 53 58 48 31 24 21 22 26 25 29 32 30 25 21 19 24 33 47 66 79 85 77 85 94 81 70
94 63 19 10 10 10 12 14 14 15 16 22 29 34 37 48 59 65 65 54 36 25 22 23 27 25 26 31 34 30 26 23 24 31 44 56 78 86 79 82 93 87 85
14 10 11 11 11 13 15 16 16 17 20 23 37 43 40 50 68 76 76 69 48 33 25 24 28 30 29 29 37 36 30 24 22 28 38 53 69 84 89 80 92 86 86
11 12 12 13 15 16 17 18 18 18 20 25 42 51 48 44 64 81 84 81 66 50 34 27 29 33 32 30 32 39 37 29 23 23 31 44 59 79 93 78 85 88 88
13 13 15 17 19 19 20 20 21 21 29 32 36 56 60 56 68 84 92 92 79 67 57 43 29 30 30 30 30 39 42 37 28 24 28 39 54 68 88 90 73 90 86
14 16 19 20 21 22 22 22 24 24 47 54 48 45 44 68 76 91 96 96 93 84 76 63 37 33 32 33 32 36 45 46 37 28 26 33 46 57 73 94 81 73 92
16 17 18 19 20 22 22 39 45 26 54 51 62 54 49 76 88 98 100 99 95 97 94 89 58 34 33 35 36 37 39 50 48 37 30 30 38 50 64 81 96 69 76
24 23 24 22 21 20 49 91 86 60 79 79 57 49 56 87 98 100 100 100 95 100 97 95 86 40 34 35 39 41 41 45 54 52 39 32 32 44 58 72 90 96 55
23 19 15 12 12 65 94 100 99 75 100 92 59 54 66 86 100 100 100 100 98 99 100 96 97 61 34 35 38 42 44 46 53 61 56 40 34 36 50 63 77 94 81
13 10 9 8 8 12 64 83 99 80 99 96 73 67 61 79 91 99 100 100 99 99 100 98 97 94 55 37 39 42 45 48 50 63 73 55 39 33 44 55 67 82 97
8 8 7 7 7 8 11 56 85 100 99 94 68 76 80 98 99 98 98 100 100 100 99 100 99 98 97 81 47 44 46 51 53 57 83 80 47 39 37 49 60 72 85
8 7 6 7 8 10 42 64 100 96 82 89 90 77 93 99 100 100 100 100 100 99 100 100 100 99 100 97 99 76 51 54 59 58 70 89 67 47 40 44 56 65 79
7 7 7 8 11 16 76 94 93 82 92 88 87 89 95 100 100 100 100 99 100 100 100 100 100 99 100 99 98 98 99 78 64 66 66 85 91 57 48 42 53 60 71
7 8 9 12 31 50 100 100 100 100 100 100 99 99 99 100 100 100 100 100 100 100 100 100 100 100 100 100 99 100 99 100 99 88 76 85 99 82 57 49 47 62 68
9 11 14 31 100 100 100 100 100 100 99 100 98 99 99 100 100 100 100 100 100 96 91 100 100 99 100 100 100 100 100 98 96 100 100 100 100 100 81 60 50 54 70
14 16 21 44 85 100 100 100 100 100 100 100 100 100 99 98 100 99 100 100 100 95 100 100 100 99 90 100 100 100 100 100 100 100 100 100 100 100 100 88 64 52 58

GFSGL_700_rhum_060.txt.gz
RH
81 75 84 88 69 99 95 100 81 86 99 96 82 71 53 68 75 31 11 6 7 8 11 12 14 20 28 40 47 54 70 76 69 64 72 48 16 15 14 16 16 18 18
100 99 98 99 97 99 100 93 99 98 92 77 73 56 75 89 79 16 8 8 10 12 14 17 22 31 42 56 74 82 88 88 73 24 15 15 13 14 15 16 19 21 23
98 98 98 100 98 100 99 100 98 94 74 61 69 92 93 61 12 8 9 12 14 17 20 26 32 42 55 72 83 90 85 25 23 18 14 14 15 18 21 26 31 36 41
98 98 99 98 99 96 98 99 95 88 78 94 94 76 35 11 9 10 14 16 18 20 26 31 38 60 81 89 88 88 22 23 19 17 15 14 16 23 31 41 46 62 69
95 81 83 92 94 97 97 98 88 95 91 85 21 9 7 8 11 14 19 24 25 27 33 35 44 94 100 97 91 28 25 22 18 15 12 13 18 26 46 61 67 65 64
44 56 88 100 93 89 87 98 96 94 73 37 24 8 8 10 14 19 25 30 32 35 38 46 59 100 100 92 44 25 26 20 17 13 13 17 24 40 59 70 67 61 58
64 82 100 92 84 94 98 94 94 71 33 15 8 9 9 11 16 23 29 33 37 43 45 48 61 71 74 43 24 28 25 22 19 17 16 21 28 50 66 71 70 69 71
91 85 86 96 99 96 92 91 40 16 8 9 9 10 10 12 18 24 28 33 40 48 49 45 40 32 28 28 26 30 27 25 22 20 20 23 34 52 71 72 71 69 72
89 94 100 99 95 95 94 52 13 8 9 10 10 10 11 13 20 29 29 36 46 53 52 41 30 23 24 28 28 31 30 26 22 21 21 27 40 56 75 76 75 74 74
99 100 97 95 96 84 24 9 9 10 11 11 12 13 14 18 28 34 34 45 55 59 53 38 26 22 24 29 28 32 32 29 25 21 23 32 44 60 80 84 77 75 78
99 96 95 96 63 12 10 10 12 12 13 15 15 15 15 19 28 37 40 47 64 64 60 43 28 23 23 30 30 30 35 33 28 22 20 25 38 53 71 87 79 80 79
96 95 85 21 11 10 11 13 15 16 17 18 18 16 17 22 31 45 48 53 73 77 74 54 35 26 26 30 30 30 32 36 34 27 22 24 30 45 64 82 84 79 87
83 20 10 11 11 12 14 15 17 19 20 21 21 18 18 25 34 56 56 60 73 81 85 72 50 33 29 29 31 32 32 39 40 32 25 25 30 37 50 68 89 78 91
14 12 12 13 14 15 16 18 19 21 22 22 27 22 25 32 33 41 56 66 71 81 95 89 68 53 35 34 37 36 35 36 43 39 30 26 26 33 46 61 83 82 86
13 12 13 14 15 16 18 20 22 21 28 38 50 33 36 34 47 45 48 70 84 89 95 95 87 78 52 35 34 34 36 35 45 46 38 30 27 29 44 58 76 89 80
14 14 14 15 16 18 18 16 14 16 27 86 84 68 79 66 45 37 47 74 90 95 96 96 100 98 88 52 35 33 37 37 43 49 48 37 30 28 37 52 68 90 87
16 16 18 19 20 17 13 11 10 9 28 88 100 97 99 95 64 51 64 88 95 97 96 96 100 100 98 80 40 33 39 40 43 48 54 50 38 31 32 45 62 83 95
20 22 22 17 12 9 8 8 7 8 12 52 98 96 98 100 90 64 69 91 96 96 99 100 99 100 98 96 49 34 40 42 46 46 54 60 55 38 32 42 55 73 93
21 18 12 10 10 9 8 7 7 7 8 46 83 99 99 100 82 77 87 93 100 98 100 100 100 100 100 98 63 37 40 43 50 48 50 64 72 51 36 35 50 66 81
14 10 10 10 8 7 6 7 7 9 14 40 93 100 99 91 66 84 88 90 97 100 98 97 99 99 99 100 97 55 42 45 49 52 52 60 81 72 44 34 46 60 75
11 11 9 7 6 6 6 7 9 13 71 100 100 94 92 97 97 98 85 86 99 98 100 100 99 99 100 100 100 100 70 50 48 55 55 56 78 87 53 40 41 54 68
11 8 7 7 7 7 8 12 22 94 100 100 89 94 99 100 100 100 100 98 93 94 99 100 100 100 99 99 100 100 100 96 63 57 59 59 64 88 73 49 40 49 62
8 8 8 8 9 10 15 62 87 100 100 100 100 100 100 94 94 100 100 100 99 99 98 97 97 100 100 100 100 100 99 100 100 92 73 66 64 80 92 60 47 44 59
9 9 9 10 12 14 18 48 100 98 100 100 100 99 98 99 98 99 98 100 100 100 100 100 98 100 100 100 100 100 100 100 100 100 99 96 80 82 99 82 57 47 53
11 10 12 15 18 22 24 36 74 91 95 97 97 99 100 100 100 99 93 100 99 97 99 100 100 100 98 98 98 100 100 100 100 100 100 99 100 99 98 98 79 58 50
12 14 18 23 30 34 36 38 61 90 97 100 100 100 100 100 100 100 100 100 96 98 100 100 100 100 100 100 98 100 100 100 100 100 100 100 100 99 99 98 98 84 61